OneWeb SL0238

operational
NORAD ID: 48784 Int'l Des: 2021-045 Owner: ONEWEBN Country: UK Constellation: oneweb
LEOCIRCULARPOLARONEWEB_TYPE

About OneWeb SL0238

Description loading...

Live Position

Loading 3D Globe...

Upcoming Passes

Altitude History

Altitude vs Time

uPlot chart will show altitude changes over time

Two-Line Element Set

1 48784U 21045T 25304.76156172 .00000229 00000-0 57405-3 0 9999
2 48784 87.8957 304.7563 0002034 82.4774 277.6587 13.15547420214344
Epoch: Oct 31, 2025 • Age: 23 hours

Current Status

Altitude 1224.8 km
Velocity 7.24 km/s
Sub-Earth Point -56.38°S, 5.68°W
Launch Date May 28, 2021
Age 4.4 years
Type internet

Technical Details

Classification Payload
Mass 148.00 kg
Dry Mass 140.00 kg
Total Mass 148.00 kg
Length 1.30 m
Diameter 1.00 m
Span 5.00 m
Shape Trapezoid+2 pan
Manufacturer ONEWUS
Bus Type ARROW
Phase Status In Orbit
Owner/State ONEWEBN/UK

Large Constellations

Loading constellations...